Tracking 19570 objects as of 22-Feb-2019
HD Live streaming from Space Station
objects crossing your sky now

FLOCK 3P 28

Track FLOCK 3P 28 now!
10-day predictions
FLOCK 3P 28 is classified as:


NORAD ID: 41960
Int'l Code: 2017-008N
Perigee: 491.7 km
Apogee: 503.2 km
Inclination: 97.4 °
Period: 94.4 minutes
Semi major axis: 6868 km
RCS: Unknown
Launch date: February 15, 2017
Source: United States (US)
Launch site: SRIHARIKOTA (SRI)
aabbcc
Your satellite tracking list
Your tracking list is empty




NASA's NSSDC Master Catalog

Two Line Element Set (TLE):
1 41960U 17008N   19052.73624847  .00002180  00000-0  89776-4 0  9996
2 41960  97.4203 120.7939 0008401 181.3586 178.7630 15.25156835112055
Source of the keplerian elements: AFSPC